| time (UTC) | temp F | wind direction | speed knots | gust knots | rain 1hr in | rain 24hr in | rain mn in | humidity % | barometer mb |
| 20260505124648 | 70 | 234 | 3.5 | 5.2 | 0.00 | 0.00 | 0.00 | 87 | 1006.1 |
| 20260505124145 | 70 | 223 | 2.6 | 5.2 | 0.00 | 0.00 | 0.00 | 86 | 1006.2 |
| 20260505123641 | 70 | 235 | 1.7 | 4.3 | 0.00 | 0.00 | 0.00 | 86 | 1006.1 |
| 20260505123138 | 70 | 250 | 2.6 | 6.1 | 0.00 | 0.00 | 0.00 | 86 | 1005.9 |
| 20260505122634 | 70 | 216 | 5.2 | 5.2 | 0.00 | 0.00 | 0.00 | 86 | 1006.1 |
| 20260505122132 | 70 | 133 | 4.3 | 5.2 | 0.00 | 0.00 | 0.00 | 86 | 1006.0 |
| 20260505121628 | 70 | 221 | 3.5 | 7.8 | 0.00 | 0.00 | 0.00 | 86 | 1005.9 |
| 20260505121125 | 69 | 265 | 4.3 | 5.2 | 0.00 | 0.00 | 0.00 | 86 | 1005.9 |
| 20260505120621 | 69 | 320 | 1.7 | 7.8 | 0.00 | 0.00 | 0.00 | 86 | 1005.8 |
| 20260505120117 | 69 | 197 | 2.6 | 8.7 | 0.00 | 0.00 | 0.00 | 86 | 1005.7 |
| 20260505115612 | 69 | 200 | 0.9 | 6.1 | 0.00 | 0.00 | 0.00 | 86 | 1005.9 |
| 20260505115109 | 69 | 234 | 0.0 | 7.0 | 0.00 | 0.00 | 0.00 | 86 | 1005.9 |
| 20260505114606 | 69 | 224 | 1.7 | 5.2 | 0.00 | 0.00 | 0.00 | 86 | 1005.9 |
| 20260505114103 | 69 | 166 | 2.6 | 5.2 | 0.00 | 0.00 | 0.00 | 85 | 1006.0 |
| 20260505113559 | 69 | 178 | 0.9 | 2.6 | 0.00 | 0.00 | 0.00 | 85 | 1005.8 |
| 20260505113056 | 69 | 0 | 2.6 | 4.3 | 0.00 | 0.00 | 0.00 | 85 | 1005.9 |
| 20260505112553 | 69 | 198 | 5.2 | 5.2 | 0.00 | 0.00 | 0.00 | 85 | 1005.7 |
| 20260505112051 | 69 | 127 | 2.6 | 4.3 | 0.00 | 0.00 | 0.00 | 85 | 1005.8 |
| 20260505111550 | 69 | 127 | 1.7 | 6.1 | 0.00 | 0.00 | 0.00 | 85 | 1006.0 |
| 20260505111046 | 69 | 175 | 1.7 | 5.2 | 0.00 | 0.00 | 0.00 | 85 | 1005.8 |
| 20260505110543 | 69 | 344 | 0.0 | 5.2 | 0.00 | 0.00 | 0.00 | 85 | 1005.9 |
| 20260505102015 | 69 | 266 | 2.6 | 5.2 | 0.00 | 0.00 | 0.00 | 84 | 1005.6 |
| 20260505101514 | 69 | 3 | 1.7 | 7.8 | 0.00 | 0.00 | 0.00 | 84 | 1005.6 |
| 20260505101010 | 69 | 179 | 1.7 | 8.7 | 0.00 | 0.00 | 0.00 | 84 | 1005.7 |
| 20260505100507 | 69 | 318 | 1.7 | 7.8 | 0.00 | 0.00 | 0.00 | 83 | 1005.6 |
| 20260505100003 | 69 | 158 | 3.5 | 8.7 | 0.00 | 0.00 | 0.00 | 83 | 1005.6 |
| 20260505095459 | 69 | 214 | 4.3 | 9.6 | 0.00 | 0.00 | 0.00 | 83 | 1005.6 |
| 20260505094955 | 69 | 195 | 1.7 | 8.7 | 0.00 | 0.00 | 0.00 | 83 | 1005.6 |
| 20260505094453 | 69 | 206 | 2.6 | 8.7 | 0.00 | 0.00 | 0.00 | 83 | 1005.7 |
| 20260505093949 | 69 | 95 | 0.9 | 5.2 | 0.00 | 0.00 | 0.00 | 83 | 1005.5 |
| 20260505093446 | 69 | 135 | 1.7 | 9.6 | 0.00 | 0.00 | 0.00 | 83 | 1005.5 |
| 20260505092943 | 69 | 277 | 4.3 | 9.6 | 0.00 | 0.00 | 0.00 | 83 | 1005.8 |
| 20260505092440 | 69 | 221 | 5.2 | 5.2 | 0.00 | 0.00 | 0.00 | 83 | 1005.7 |
| 20260505091938 | 69 | 96 | 1.7 | 7.0 | 0.00 | 0.00 | 0.00 | 83 | 1005.8 |
| 20260505091435 | 69 | 206 | 6.1 | 7.0 | 0.00 | 0.00 | 0.00 | 84 | 1005.6 |
| 20260505090933 | 69 | 210 | 3.5 | 5.2 | 0.00 | 0.00 | 0.00 | 84 | 1005.8 |
| 20260505090431 | 69 | 213 | 3.5 | 7.0 | 0.00 | 0.00 | 0.00 | 84 | 1005.7 |
| 20260505085928 | 69 | 87 | 0.9 | 4.3 | 0.00 | 0.00 | 0.00 | 84 | 1005.7 |
| 20260505085426 | 69 | 234 | 1.7 | 7.8 | 0.00 | 0.00 | 0.00 | 84 | 1006.1 |
| 20260505084924 | 69 | 233 | 7.0 | 7.0 | 0.00 | 0.00 | 0.00 | 84 | 1006.1 |
| 20260505084422 | 68 | 32 | 3.5 | 7.0 | 0.00 | 0.00 | 0.00 | 84 | 1005.9 |
| 20260505083920 | 68 | 88 | 0.9 | 8.7 | 0.00 | 0.00 | 0.00 | 84 | 1006.0 |
| 20260505083417 | 68 | 291 | 1.7 | 3.5 | 0.00 | 0.00 | 0.00 | 84 | 1005.9 |
| 20260505082913 | 68 | 12 | 2.6 | 5.2 | 0.00 | 0.00 | 0.00 | 84 | 1005.9 |
| 20260505082409 | 68 | 190 | 1.7 | 4.3 | 0.00 | 0.00 | 0.00 | 84 | 1006.0 |
| 20260505081906 | 68 | 69 | 3.5 | 6.1 | 0.00 | 0.00 | 0.00 | 84 | 1006.1 |
| 20260505081403 | 68 | 123 | 3.5 | 5.2 | 0.00 | 0.00 | 0.00 | 84 | 1006.1 |
| 20260505080859 | 68 | 189 | 0.0 | 9.6 | 0.00 | 0.00 | 0.00 | 84 | 1006.4 |
| 20260505080355 | 68 | 195 | 4.3 | 6.1 | 0.00 | 0.00 | 0.00 | 84 | 1006.4 |
| 20260505075851 | 68 | 163 | 1.7 | 7.8 | 0.00 | 0.00 | 0.00 | 84 | 1006.4 |
| 20260505075348 | 68 | 101 | 3.5 | 3.5 | 0.00 | 0.00 | 0.00 | 84 | 1006.3 |
| 20260505074845 | 68 | 184 | 3.5 | 7.0 | 0.00 | 0.00 | 0.00 | 83 | 1006.5 |
| 20260505074342 | 68 | 195 | 0.9 | 2.6 | 0.00 | 0.00 | 0.00 | 83 | 1006.4 |
| 20260505073840 | 68 | 80 | 3.5 | 7.8 | 0.00 | 0.00 | 0.00 | 83 | 1006.6 |
| 20260505073337 | 68 | 196 | 2.6 | 4.3 | 0.00 | 0.00 | 0.00 | 83 | 1006.6 |
| 20260505072834 | 68 | 159 | 2.6 | 5.2 | 0.00 | 0.00 | 0.00 | 83 | 1006.6 |
| 20260505072330 | 68 | 260 | 1.7 | 6.1 | 0.00 | 0.00 | 0.00 | 83 | 1006.5 |
| 20260505071826 | 69 | 238 | 1.7 | 5.2 | 0.00 | 0.00 | 0.00 | 83 | 1006.5 |
| 20260505071323 | 68 | 188 | 1.7 | 6.1 | 0.00 | 0.00 | 0.00 | 82 | 1006.7 |
| 20260505070821 | 69 | 101 | 0.9 | 7.0 | 0.00 | 0.00 | 0.00 | 82 | 1006.7 |
| 20260505070318 | 69 | 82 | 0.9 | 5.2 | 0.00 | 0.00 | 0.00 | 82 | 1006.9 |
| 20260505065813 | 69 | 226 | 3.5 | 4.3 | 0.00 | 0.00 | 0.00 | 82 | 1006.9 |
| 20260505065310 | 69 | 107 | 2.6 | 7.8 | 0.00 | 0.00 | 0.00 | 81 | 1006.9 |
| 20260505064807 | 69 | 119 | 0.0 | 4.3 | 0.00 | 0.00 | 0.00 | 81 | 1007.0 |
| 20260505064304 | 69 | 231 | 3.5 | 5.2 | 0.00 | 0.00 | 0.00 | 81 | 1007.2 |
| 20260505063802 | 69 | 141 | 2.6 | 5.2 | 0.00 | 0.00 | 0.00 | 81 | 1007.2 |
| 20260505063258 | 69 | 88 | 0.9 | 8.7 | 0.00 | 0.00 | 0.00 | 81 | 1007.0 |
| 20260505062754 | 69 | 113 | 2.6 | 5.2 | 0.00 | 0.00 | 0.00 | 81 | 1007.1 |
| 20260505062252 | 69 | 180 | 1.7 | 3.5 | 0.00 | 0.00 | 0.00 | 81 | 1007.1 |
| 20260505061748 | 69 | 140 | 1.7 | 4.3 | 0.00 | 0.00 | 0.00 | 80 | 1007.3 |
| 20260505061247 | 69 | 198 | 3.5 | 5.2 | 0.00 | 0.00 | 0.00 | 80 | 1007.3 |
| 20260505060744 | 69 | 258 | 2.6 | 4.3 | 0.00 | 0.00 | 0.00 | 80 | 1007.2 |
| 20260505060241 | 69 | 14 | 3.5 | 4.3 | 0.00 | 0.00 | 0.00 | 80 | 1007.4 |
| 20260505055736 | 69 | 243 | 0.0 | 3.5 | 0.00 | 0.00 | 0.00 | 80 | 1007.3 |
| 20260505055232 | 69 | 118 | 0.9 | 3.5 | 0.00 | 0.00 | 0.00 | 79 | 1007.3 |
| 20260505054730 | 69 | 235 | 1.7 | 5.2 | 0.00 | 0.00 | 0.00 | 79 | 1007.6 |
| 20260505054228 | 69 | 61 | 3.5 | 5.2 | 0.00 | 0.00 | 0.00 | 79 | 1007.4 |
| 20260505053726 | 69 | 353 | 0.9 | 4.3 | 0.00 | 0.00 | 0.00 | 79 | 1007.6 |
| 20260505053222 | 69 | 85 | 0.0 | 3.5 | 0.00 | 0.00 | 0.00 | 79 | 1007.6 |
| 20260505052719 | 69 | 206 | 3.5 | 5.2 | 0.00 | 0.00 | 0.00 | 79 | 1007.5 |
| 20260505052216 | 69 | 275 | 3.5 | 5.2 | 0.00 | 0.00 | 0.00 | 78 | 1007.6 |
| 20260505051713 | 69 | 228 | 3.5 | 3.5 | 0.00 | 0.00 | 0.00 | 78 | 1007.5 |
| 20260505051211 | 69 | 245 | 1.7 | 3.5 | 0.00 | 0.00 | 0.00 | 78 | 1007.7 |
| 20260505050709 | 69 | 227 | 1.7 | 4.3 | 0.00 | 0.00 | 0.00 | 78 | 1007.7 |
| 20260505050207 | 69 | 103 | 0.0 | 5.2 | 0.00 | 0.00 | 0.00 | 78 | 1007.8 |
| 20260505041637 | 70 | 124 | 0.0 | 5.2 | 0.00 | 0.00 | 0.00 | 74 | 1007.8 |
| 20260505041134 | 70 | 329 | 1.7 | 7.8 | 0.00 | 0.00 | 0.00 | 73 | 1007.8 |
| 20260505040631 | 69 | 201 | 2.6 | 5.2 | 0.00 | 0.00 | 0.00 | 73 | 1008.0 |
| 20260505040128 | 69 | 173 | 0.0 | 1.7 | 0.00 | 0.00 | 0.00 | 73 | 1008.0 |
| 20260505035624 | 69 | 1 | 1.7 | 3.5 | 0.00 | 0.00 | 0.00 | 73 | 1008.0 |
| 20260505035120 | 69 | 277 | 2.6 | 2.6 | 0.00 | 0.00 | 0.00 | 73 | 1007.9 |
| 20260505034617 | 70 | 69 | 1.7 | 2.6 | 0.00 | 0.00 | 0.00 | 72 | 1008.0 |
| 20260505034114 | 70 | 285 | 2.6 | 3.5 | 0.00 | 0.00 | 0.00 | 72 | 1008.0 |
| 20260505033611 | 70 | 41 | 0.9 | 3.5 | 0.00 | 0.00 | 0.00 | 71 | 1008.1 |
| 20260505033110 | 70 | 174 | 1.7 | 2.6 | 0.00 | 0.00 | 0.00 | 71 | 1008.1 |
| 20260505032607 | 70 | 42 | 0.9 | 3.5 | 0.00 | 0.00 | 0.00 | 70 | 1008.1 |
| 20260505032103 | 70 | 64 | 1.7 | 3.5 | 0.00 | 0.00 | 0.00 | 70 | 1007.9 |
| 20260505031601 | 70 | 111 | 2.6 | 3.5 | 0.00 | 0.00 | 0.00 | 70 | 1007.7 |
| 20260505031057 | 70 | 165 | 0.0 | 2.6 | 0.00 | 0.00 | 0.00 | 70 | 1007.7 |
| 20260505030554 | 70 | 173 | 1.7 | 2.6 | 0.00 | 0.00 | 0.00 | 70 | 1007.8 |
| 20260505030050 | 70 | 84 | 1.7 | 2.6 | 0.00 | 0.00 | 0.00 | 70 | 1007.9 |
| 20260505025545 | 70 | 185 | 1.7 | 2.6 | 0.00 | 0.00 | 0.00 | 69 | 1007.9 |
| 20260505025045 | 70 | 92 | 1.7 | 2.6 | 0.00 | 0.00 | 0.00 | 69 | 1007.9 |
| 20260505024541 | 70 | 32 | 0.0 | 1.7 | 0.00 | 0.00 | 0.00 | 69 | 1007.9 |
| 20260505024038 | 70 | 144 | 0.9 | 2.6 | 0.00 | 0.00 | 0.00 | 69 | 1007.9 |
| 20260505023535 | 70 | 118 | 0.9 | 1.7 | 0.00 | 0.00 | 0.00 | 70 | 1007.7 |
| 20260505023033 | 70 | 214 | 0.0 | 2.6 | 0.00 | 0.00 | 0.00 | 69 | 1007.8 |
| 20260505022530 | 71 | 198 | 0.9 | 1.7 | 0.00 | 0.00 | 0.00 | 69 | 1007.7 |
| 20260505022027 | 71 | 296 | 0.0 | 1.7 | 0.00 | 0.00 | 0.00 | 68 | 1007.9 |
| 20260505021524 | 71 | 23 | 1.7 | 1.7 | 0.00 | 0.00 | 0.00 | 68 | 1007.9 |
| 20260505021021 | 70 | 312 | 0.9 | 3.5 | 0.00 | 0.00 | 0.00 | 68 | 1007.9 |
| 20260505020520 | 70 | 119 | 0.9 | 1.7 | 0.00 | 0.00 | 0.00 | 69 | 1007.8 |
| 20260505020018 | 70 | 77 | 0.0 | 1.7 | 0.00 | 0.00 | 0.00 | 69 | 1007.8 |
| 20260505015515 | 71 | 168 | 0.9 | 1.7 | 0.00 | 0.00 | 0.00 | 68 | 1007.7 |
| 20260505015012 | 71 | 89 | 0.0 | 2.6 | 0.00 | 0.00 | 0.00 | 67 | 1007.6 |
| 20260505014509 | 71 | 62 | 0.0 | 1.7 | 0.00 | 0.00 | 0.00 | 67 | 1007.5 |
| 20260505014006 | 71 | 139 | 1.7 | 2.6 | 0.00 | 0.00 | 0.00 | 66 | 1007.6 |
| 20260505013503 | 71 | 155 | 0.0 | 1.7 | 0.00 | 0.00 | 0.00 | 66 | 1007.6 |
| 20260505013000 | 72 | 47 | 0.9 | 2.6 | 0.00 | 0.00 | 0.00 | 65 | 1007.7 |
| 20260505012458 | 72 | 130 | 0.9 | 2.6 | 0.00 | 0.00 | 0.00 | 64 | 1007.5 |
| 20260505011955 | 72 | 126 | 0.9 | 3.5 | 0.00 | 0.00 | 0.00 | 63 | 1007.6 |
| 20260505011450 | 73 | 286 | 0.9 | 2.6 | 0.00 | 0.00 | 0.00 | 63 | 1007.5 |
| 20260505010948 | 73 | 132 | 1.7 | 3.5 | 0.00 | 0.00 | 0.00 | 63 | 1007.4 |
| 20260505010443 | 73 | 132 | 0.9 | 2.6 | 0.00 | 0.00 | 0.00 | 62 | 1007.4 |
| 20260505005939 | 73 | 55 | 0.9 | 1.7 | 0.00 | 0.00 | 0.00 | 62 | 1007.2 |
| 20260505005436 | 74 | 103 | 0.9 | 3.5 | 0.00 | 0.00 | 0.00 | 61 | 1007.5 |
| 20260505004934 | 74 | 184 | 0.0 | 3.5 | 0.00 | 0.00 | 0.00 | 59 | 1007.4 |
| 20260505004430 | 75 | 153 | 0.9 | 1.7 | 0.00 | 0.00 | 0.00 | 60 | 1007.4 |
| 20260505003928 | 75 | 281 | 0.0 | 1.7 | 0.00 | 0.00 | 0.00 | 59 | 1007.2 |
| 20260505003425 | 75 | 124 | 2.6 | 3.5 | 0.00 | 0.00 | 0.00 | 58 | 1007.5 |
| 20260505002921 | 75 | 100 | 4.3 | 4.3 | 0.00 | 0.00 | 0.00 | 58 | 1007.5 |
| 20260505002417 | 75 | 142 | 0.0 | 1.7 | 0.00 | 0.00 | 0.00 | 59 | 1007.7 |
| 20260505001916 | 76 | 99 | 0.9 | 1.7 | 0.00 | 0.00 | 0.00 | 57 | 1007.6 |
| 20260505001413 | 76 | 293 | 0.9 | 3.5 | 0.00 | 0.00 | 0.00 | 55 | 1007.6 |
| 20260505000910 | 76 | 207 | 0.9 | 4.3 | 0.00 | 0.00 | 0.00 | 56 | 1007.5 |
| 20260505000408 | 76 | 71 | 2.6 | 5.2 | 0.00 | 0.00 | 0.00 | 56 | 1007.8 |
| 20260504235904 | 77 | 34 | 3.5 | 3.5 | 0.00 | 0.00 | 0.00 | 54 | 1007.8 |
| 20260504235401 | 77 | 339 | 0.0 | 8.7 | 0.00 | 0.00 | 0.00 | 54 | 1007.9 |
| 20260504234857 | 77 | 25 | 0.0 | 2.6 | 0.00 | 0.00 | 0.00 | 54 | 1007.8 |
| 20260504234355 | 77 | 269 | 1.7 | 3.5 | 0.00 | 0.00 | 0.00 | 54 | 1007.9 |
| 20260504233852 | 77 | 111 | 1.7 | 3.5 | 0.00 | 0.00 | 0.00 | 55 | 1008.0 |
| 20260504233347 | 78 | 79 | 4.3 | 5.2 | 0.00 | 0.00 | 0.00 | 53 | 1008.3 |
| 20260504232844 | 78 | 186 | 7.8 | 10.4 | 0.00 | 0.00 | 0.00 | 52 | 1008.1 |
| 20260504232342 | 78 | 73 | 0.9 | 2.6 | 0.00 | 0.00 | 0.00 | 52 | 1008.2 |
| 20260504231838 | 78 | 108 | 0.0 | 4.3 | 0.00 | 0.00 | 0.00 | 51 | 1008.2 |
| 20260504231335 | 78 | 190 | 2.6 | 9.6 | 0.00 | 0.00 | 0.00 | 51 | 1008.2 |
| 20260504230831 | 78 | 250 | 2.6 | 5.2 | 0.00 | 0.00 | 0.00 | 50 | 1008.3 |
| 20260504230329 | 78 | 304 | 1.7 | 4.3 | 0.00 | 0.00 | 0.00 | 50 | 1008.3 |
| 20260504225827 | 78 | 225 | 3.5 | 4.3 | 0.00 | 0.00 | 0.00 | 49 | 1008.7 |
| 20260504225323 | 79 | 198 | 1.7 | 7.0 | 0.00 | 0.00 | 0.00 | 50 | 1008.4 |
| 20260504224821 | 79 | 103 | 4.3 | 7.0 | 0.00 | 0.00 | 0.00 | 49 | 1008.4 |
| 20260504224318 | 79 | 180 | 2.6 | 9.6 | 0.00 | 0.00 | 0.00 | 47 | 1008.4 |
| 20260504223815 | 79 | 197 | 0.9 | 6.1 | 0.00 | 0.00 | 0.00 | 47 | 1008.8 |
| 20260504223310 | 79 | 104 | 3.5 | 7.0 | 0.00 | 0.00 | 0.00 | 49 | 1008.6 |
| 20260504222807 | 79 | 351 | 1.7 | 2.6 | 0.00 | 0.00 | 0.00 | 49 | 1008.8 |
| 20260504222305 | 80 | 245 | 2.6 | 7.8 | 0.00 | 0.00 | 0.00 | 48 | 1008.8 |
| 20260504221802 | 80 | 69 | 1.7 | 9.6 | 0.00 | 0.00 | 0.00 | 47 | 1008.7 |
| 20260504221258 | 80 | 233 | 1.7 | 4.3 | 0.00 | 0.00 | 0.00 | 47 | 1008.8 |
| 20260504220755 | 81 | 227 | 1.7 | 5.2 | 0.00 | 0.00 | 0.00 | 45 | 1008.8 |
| 20260504220252 | 81 | 277 | 0.9 | 6.1 | 0.00 | 0.00 | 0.00 | 46 | 1008.9 |
| 20260504215749 | 81 | 225 | 3.5 | 3.5 | 0.00 | 0.00 | 0.00 | 46 | 1008.9 |
| 20260504215246 | 81 | 305 | 3.5 | 5.2 | 0.00 | 0.00 | 0.00 | 45 | 1009.0 |
| 20260504214742 | 82 | 158 | 3.5 | 8.7 | 0.00 | 0.00 | 0.00 | 45 | 1009.2 |
| 20260504214238 | 82 | 306 | 4.3 | 7.8 | 0.00 | 0.00 | 0.00 | 43 | 1009.2 |
| 20260504213735 | 82 | 267 | 0.9 | 5.2 | 0.00 | 0.00 | 0.00 | 46 | 1009.3 |
| 20260504213232 | 82 | 65 | 4.3 | 4.3 | 0.00 | 0.00 | 0.00 | 46 | 1009.1 |
| 20260504212729 | 82 | 232 | 0.9 | 6.1 | 0.00 | 0.00 | 0.00 | 46 | 1009.2 |
| 20260504212225 | 81 | 229 | 7.0 | 8.7 | 0.00 | 0.00 | 0.00 | 45 | 1009.4 |
| 20260504211723 | 82 | 246 | 6.1 | 8.7 | 0.00 | 0.00 | 0.00 | 43 | 1009.7 |
| 20260504211219 | 82 | 224 | 0.9 | 7.0 | 0.00 | 0.00 | 0.00 | 45 | 1009.6 |
| 20260504210717 | 82 | 212 | 2.6 | 5.2 | 0.00 | 0.00 | 0.00 | 44 | 1009.9 |
| 20260504210213 | 82 | 189 | 2.6 | 8.7 | 0.00 | 0.00 | 0.00 | 44 | 1009.9 |
| 20260504205710 | 82 | 290 | 1.7 | 7.0 | 0.00 | 0.00 | 0.00 | 44 | 1010.0 |
| 20260504205208 | 82 | 220 | 1.7 | 7.8 | 0.00 | 0.00 | 0.00 | 44 | 1010.1 |
| 20260504204706 | 82 | 146 | 1.7 | 5.2 | 0.00 | 0.00 | 0.00 | 46 | 1010.3 |
| 20260504204204 | 82 | 308 | 3.5 | 7.0 | 0.00 | 0.00 | 0.00 | 44 | 1010.5 |
| 20260504203703 | 83 | 211 | 3.5 | 3.5 | 0.00 | 0.00 | 0.00 | 44 | 1010.6 |
| 20260504203201 | 83 | 141 | 1.7 | 6.1 | 0.00 | 0.00 | 0.00 | 43 | 1010.7 |
| 20260504202700 | 82 | 51 | 0.9 | 4.3 | 0.00 | 0.00 | 0.00 | 42 | 1010.8 |
| 20260504202158 | 82 | 222 | 2.6 | 4.3 | 0.00 | 0.00 | 0.00 | 43 | 1010.8 |
| 20260504201654 | 82 | 203 | 3.5 | 6.1 | 0.00 | 0.00 | 0.00 | 45 | 1011.0 |
| 20260504201152 | 81 | 291 | 4.3 | 6.1 | 0.00 | 0.00 | 0.00 | 45 | 1011.0 |
| 20260504200649 | 81 | 145 | 1.7 | 7.8 | 0.00 | 0.00 | 0.00 | 43 | 1011.1 |
| 20260504200146 | 81 | 333 | 3.5 | 7.8 | 0.00 | 0.00 | 0.00 | 43 | 1011.3 |
| 20260504195641 | 82 | 205 | 6.1 | 7.0 | 0.00 | 0.00 | 0.00 | 43 | 1011.3 |
| 20260504195138 | 82 | 164 | 0.0 | 7.0 | 0.00 | 0.00 | 0.00 | 44 | 1011.5 |
| 20260504194635 | 82 | 18 | 1.7 | 6.1 | 0.00 | 0.00 | 0.00 | 44 | 1011.7 |
| 20260504194131 | 81 | 242 | 1.7 | 5.2 | 0.00 | 0.00 | 0.00 | 45 | 1011.7 |
| 20260504193627 | 82 | 204 | 3.5 | 12.2 | 0.00 | 0.00 | 0.00 | 44 | 1011.7 |
| 20260504193126 | 82 | 239 | 4.3 | 6.1 | 0.00 | 0.00 | 0.00 | 42 | 1011.9 |
| 20260504192623 | 81 | 23 | 0.0 | 5.2 | 0.00 | 0.00 | 0.00 | 46 | 1011.9 |
| 20260504192121 | 80 | 268 | 2.6 | 7.0 | 0.00 | 0.00 | 0.00 | 46 | 1011.8 |
| 20260504191619 | 81 | 326 | 0.0 | 5.2 | 0.00 | 0.00 | 0.00 | 45 | 1012.0 |
| 20260504191115 | 80 | 100 | 0.9 | 7.0 | 0.00 | 0.00 | 0.00 | 47 | 1012.0 |
| 20260504190611 | 80 | 248 | 1.7 | 4.3 | 0.00 | 0.00 | 0.00 | 46 | 1012.2 |
| 20260504190108 | 80 | 96 | 4.3 | 8.7 | 0.00 | 0.00 | 0.00 | 46 | 1012.0 |
| 20260504185605 | 80 | 32 | 1.7 | 3.5 | 0.00 | 0.00 | 0.00 | 46 | 1012.3 |
| 20260504185101 | 79 | 231 | 4.3 | 6.1 | 0.00 | 0.00 | 0.00 | 44 | 1012.4 |
| 20260504184557 | 79 | 289 | 6.1 | 9.6 | 0.00 | 0.00 | 0.00 | 44 | 1012.6 |
| 20260504184052 | 80 | 226 | 3.5 | 7.8 | 0.00 | 0.00 | 0.00 | 43 | 1012.6 |
| 20260504183549 | 80 | 77 | 3.5 | 7.0 | 0.00 | 0.00 | 0.00 | 44 | 1012.7 |
| 20260504183048 | 80 | 237 | 4.3 | 5.2 | 0.00 | 0.00 | 0.00 | 45 | 1012.6 |
| 20260504182544 | 79 | 224 | 1.7 | 5.2 | 0.00 | 0.00 | 0.00 | 47 | 1012.6 |
| 20260504182042 | 79 | 252 | 1.7 | 10.4 | 0.00 | 0.00 | 0.00 | 45 | 1012.8 |
| 20260504181539 | 79 | 100 | 1.7 | 8.7 | 0.00 | 0.00 | 0.00 | 46 | 1012.9 |
| 20260504181037 | 80 | 208 | 5.2 | 7.0 | 0.00 | 0.00 | 0.00 | 45 | 1012.9 |
| 20260504180535 | 80 | 102 | 6.1 | 7.8 | 0.00 | 0.00 | 0.00 | 47 | 1013.0 |
| 20260504180034 | 79 | 291 | 1.7 | 4.3 | 0.00 | 0.00 | 0.00 | 47 | 1013.1 |
| 20260504175531 | 79 | 213 | 1.7 | 5.2 | 0.00 | 0.00 | 0.00 | 45 | 1013.2 |
| 20260504175028 | 79 | 29 | 2.6 | 5.2 | 0.00 | 0.00 | 0.00 | 45 | 1013.2 |
| 20260504174526 | 78 | 71 | 2.6 | 5.2 | 0.00 | 0.00 | 0.00 | 47 | 1013.4 |
| 20260504174022 | 78 | 168 | 1.7 | 6.1 | 0.00 | 0.00 | 0.00 | 47 | 1013.3 |
| 20260504173519 | 78 | 217 | 3.5 | 7.8 | 0.00 | 0.00 | 0.00 | 47 | 1013.4 |
| 20260504173017 | 78 | 123 | 1.7 | 7.0 | 0.00 | 0.00 | 0.00 | 46 | 1013.5 |
| 20260504172513 | 78 | 253 | 3.5 | 6.1 | 0.00 | 0.00 | 0.00 | 44 | 1013.7 |
| 20260504172009 | 77 | 96 | 0.9 | 3.5 | 0.00 | 0.00 | 0.00 | 48 | 1013.9 |
| 20260504171506 | 76 | 184 | 2.6 | 7.8 | 0.00 | 0.00 | 0.00 | 47 | 1013.9 |
| 20260504171003 | 76 | 221 | 3.5 | 7.0 | 0.00 | 0.00 | 0.00 | 48 | 1013.7 |
| 20260504170459 | 77 | 215 | 0.0 | 7.0 | 0.00 | 0.00 | 0.00 | 46 | 1014.0 |
| 20260504160419 | 75 | 245 | 7.0 | 11.3 | 0.00 | 0.00 | 0.00 | 47 | 1014.3 |
| 20260504150843 | 71 | 201 | 4.3 | 9.6 | 0.00 | 0.00 | 0.00 | 55 | 1014.6 |
| 20260504150339 | 71 | 216 | 3.5 | 9.6 | 0.00 | 0.00 | 0.00 | 56 | 1014.9 |
| 20260504141309 | 69 | 186 | 1.7 | 7.0 | 0.00 | 0.00 | 0.00 | 61 | 1015.0 |
| 20260504140806 | 69 | 62 | 2.6 | 4.3 | 0.00 | 0.00 | 0.00 | 62 | 1015.0 |
| 20260504140302 | 68 | 266 | 3.5 | 6.1 | 0.00 | 0.00 | 0.00 | 65 | 1014.7 |
| 20260504130731 | 64 | 255 | 2.6 | 3.5 | 0.00 | 0.00 | 0.00 | 69 | 1014.7 |
| 20260504130226 | 64 | 154 | 0.9 | 3.5 | 0.00 | 0.00 | 0.00 | 71 | 1014.9 |